Regional Weather Roundup
Issued by NWS Newport/Morehead, NC

Current Version | Previous Version | Text Only | Print | Product List | Glossary Off
Versions: 1 2 3 4 5 6 7 8 9 10 11 12 13 14 15 16 17 18 19 20 21 22 23 24 25 26 27 28 29 30 31 32 33 34 35 36 37 38 39 40 41 42 43 44 45 46 47 48 49 50
000 ASUS42 KMHX 262024 RWRMHX WEATHER ROUNDUP FOR EASTERN NORTH CAROLINA NATIONAL WEATHER SERVICE NEWPORT/MOREHEAD CITY NC 400 PM EDT THU MAR 26 2015 NOTE: "FAIR" INDICATES FEW OR NO CLOUDS BELOW 12,000 FEET WITH NO SIGNIFICANT WEATHER AND/OR OBSTRUCTIONS TO VISIBILITY NCZ015>017-031-032-045>047-102-103-262100- NORTH COAST CITY SKY/WX TMP DP RH WIND PRES REMARKS EDENTON RAIN 64 62 93 SW6 29.80R ELIZABETH CITY MOSUNNY 74 59 59 S23G35 29.77F KITTY HAWK MOCLDY 70 62 77 S15G29 29.81S MANTEO PTSUNNY 64 58 81 S23G31 29.81F $$ NCZ045>047-081-094-103-104-262100- CENTRAL COAST CITY SKY/WX TMP DP RH WIND PRES REMARKS FRISCO PTSUNNY 67 62 84 S23G32 29.86F SWANQUARTER N/A 66 N/A N/A S18G25 29.79S $$ NCZ095-097-098-100-101-262100- SOUTHERN COAST CITY SKY/WX TMP DP RH WIND PRES REMARKS BEAUFORT SUNNY 67 60 78 S18G26 29.87F CEDAR ISLAND N/A 72 N/A N/A S16G26 29.88S JACKSONVILLE PTSUNNY 76 52 43 SW14G24 29.84F PINEY ISLAND PTCLDY N/A N/A N/A S24G35 29.85F WILMINGTON MOSUNNY 76 56 49 SW15G25 29.86F $$ NCZ011>013-027>030-043-044-078>080-089-090>093-098-262100- COASTAL PLAIN CITY SKY/WX TMP DP RH WIND PRES REMARKS AHOSKIE PTSUNNY 69 61 76 S5 29.78F CLINTON PTSUNNY 74 58 56 SW13G20 29.83F ELIZABETHTOWN PTSUNNY 76 57 52 SW10G17 29.84F GOLDSBORO SUNNY 75 67 76 SW22 29.79F GREENVILLE MOSUNNY 72 61 68 SW8 29.83F HAVELOCK PTSUNNY 74 59 59 SW15G29 29.85F KENANSVILLE MOSUNNY 74 55 50 SW9 29.84F KINSTON MOSUNNY 75 57 53 SW14G23 29.82F NEW BERN PTSUNNY 76 59 55 S12G23 29.83F RICHLANDS PTSUNNY 75 55 50 SW16 29.84F ROCKY MOUNT PTSUNNY 73 58 59 SW17G25 29.79F WASHINGTON MOSUNNY 71 62 71 SW9G17 29.80F WHITEVILLE CLOUDY 75 57 52 SW12G18 29.85F $$ AMZ130-135-150-152-154-156-158-170-250-252-270-ANZ085-086-088-633-658-670-262100- MARINE OBSERVATIONS STATION/POSITION TIME TEMP WIND PRES WAVE SWELL AIR SEA DIR/SP/G HT/PER HT/PER (UTC) (F) (DEG/KT/KT) (MB) (FT/S) (FT/S) CHESAPEAKE LIGHT 2000 180/ 28 N/A 64 E VA BEACH 1950 62 54 170/ 21/ 25 1008.8 7/ 8 5/ 8 DUCK 2000 69 42 180/ 32/ 38 1007.3 2 E DUCK 1911 44 N/A 5/ 7 10 NE DUCK NOT AVBL OREGON INLET 2000 64 58 170/ 20/ 26 1009.7 HATTERAS CG 2000 68 57 180/ 13/ 20 1011.2 CAPE LOOKOUT 2000 67 190/ 14/ 17 1011.6 BEAUFORT LAB 2000 64 56 200/ 18/ 21 1010.3 27 SE WRIGHTSVLE 2000 63 64 220/ 14/ 17 1014.5 5 SE WRIGHTSVLE 2000 60 56 200/ 14/ 16 1011.9 225 S CAPE HAT 1950 70 69 180/ 19/ 23 1016.5 8/ 7 41 SE CHARLESTON 1950 67 71 230/ 12/ 14 1012.7 5/ 8 5/ 8 $$

USA.gov is the U.S. government's official web portal to all federal, state and local government web resources and services.